Location: Erp
(42.9417°N, 1.2009°E)
Time: 14:51:34
(UTC+00:00)

NOSS 2-3 (E) - Pass Details

Date: 12 January 2026
Orbit: 492 x 1706 km, 63.3° (Epoch: 24 April)

Event Time Altitude Azimuth Distance (km) Brightness Sun altitude
Rises 17:52:24 0° 325° (NW) 3,089 7.4 -12.5°
Reaches altitude 10° 17:54:29 10° 328° (NNW) 2,296 6.7 -12.9°
Maximum altitude 17:59:47 73° 53° (NE) 973 4.3 -13.8°
Drops below altitude 10° 18:07:00 10° 138° (SE) 3,088 6.9 -15.1°
Sets 18:10:11 0° 140° (SE) 4,236 7.6 -15.6°
